Nashville, TN

1:09 PM CDT on June 25, 2017 (GMT -0500)
Nashville International

Weather History for KBNA - June, 2013

Change the Weather History Date:

Saturday, June 29, 2013

  Actual Average Record
Temperature  
Mean Temperature 78 °F 78 °F  
Max Temperature 90 °F 89 °F 109 °F (2012)
Min Temperature 65 °F 68 °F 54 °F (1974)
Degree Days  
Heating Degree Days 0    
Month to date heating degree days 0  
Since 1 June heating degree days 0  
Since 1 July heating degree days 3532  
Cooling Degree Days 13    
Month to date cooling degree days 362  
Year to date cooling degree days 569  
Since 1 June cooling degree days 362  
Growing Degree Days 27 (Base 50)    
Moisture  
Dew Point 60 °F    
Average Humidity 62    
Maximum Humidity 87    
Minimum Humidity 36    
Precipitation  
Precipitation T in 0.13 in 4.22 in (1928)
Month to date precipitation 4.48 4.01  
Year to date precipitation 28.92 25.31  
Snow  
Snow 0.00 in - 0.00 in (2002)
Month to date snowfall 0.0  
Since 1 June snowfall 0.0  
Since 1 July snowfall 1.3  
Snow Depth 0.00 in    
Sea Level Pressure  
Sea Level Pressure 29.67 in    
Wind  
Wind Speed 6 mph (West)    
Max Wind Speed 18 mph    
Max Gust Speed 24 mph    
Visibility 10 miles    
Events      
T = Trace of Precipitation, MM = Missing Value Source: NWS Daily Summary

Daily Weather History Graph

Daily Weather History Graph

Search for Another Location

Airport or City:

Trip Planner

Search our weather history database for the weather conditions in past years. The results will help you decide how hot, cold, wet, or windy it might be!

Date:

Astronomy

Jun. 29, 2013 Rise Set
Actual Time 5:32 AM CDT 8:07 PM CDT
Civil Twilight 5:02 AM CDT 8:38 PM CDT
Nautical Twilight 4:24 AM CDT 9:15 PM CDT
Astronomical Twilight 3:42 AM CDT 9:57 PM CDT
Moon No Moon Rise 12:29 PM CDT (6/29)
Length of Visible Light 15h 35m
Length of Day
14h 35m
Waning Gibbous, 55% of the Moon is Illuminated
Jun 29
Waning Gibbous
Jun 29
Last Quarter
Jul 8
New
Jul 15
First Quarter
Jul 22
Full

Hourly Weather History & Observations

Time (CDT) Temp. Heat Index Dew Point Humidity Pressure Visibility Wind Dir Wind Speed Gust Speed Precip Events Conditions
12:53 AM 75.9 °F - 62.1 °F 62% 29.69 in 10.0 mi NW 4.6 mph - N/A   Partly Cloudy
1:53 AM 72.0 °F - 62.1 °F 71% 29.68 in 10.0 mi Calm Calm - N/A   Clear
2:53 AM 71.1 °F - 62.1 °F 73% 29.67 in 10.0 mi WSW 3.5 mph - N/A   Clear
3:53 AM 66.9 °F - 62.1 °F 84% 29.68 in 10.0 mi South 4.6 mph - N/A   Clear
4:53 AM 66.0 °F - 62.1 °F 87% 29.68 in 10.0 mi South 4.6 mph - N/A   Clear
5:53 AM 64.9 °F - 61.0 °F 87% 29.69 in 10.0 mi South 4.6 mph - N/A   Partly Cloudy
6:53 AM 71.1 °F - 62.1 °F 73% 29.69 in 10.0 mi Calm Calm - N/A   Partly Cloudy
7:53 AM 77.0 °F - 59.0 °F 54% 29.69 in 10.0 mi West 6.9 mph - N/A   Partly Cloudy
8:53 AM 80.1 °F 80.7 °F 59.0 °F 48% 29.68 in 10.0 mi WNW 8.1 mph - N/A   Partly Cloudy
9:53 AM 82.9 °F 82.8 °F 59.0 °F 44% 29.68 in 10.0 mi West 5.8 mph - N/A   Clear
10:53 AM 87.1 °F 86.1 °F 57.9 °F 37% 29.68 in 10.0 mi WNW 8.1 mph - N/A   Partly Cloudy
11:53 AM 87.1 °F 85.9 °F 57.0 °F 36% 29.68 in 10.0 mi West 12.7 mph 20.7 mph N/A   Mostly Cloudy
12:53 PM 86.0 °F 84.9 °F 57.0 °F 37% 29.67 in 10.0 mi Variable 6.9 mph 19.6 mph N/A   Mostly Cloudy
1:53 PM 88.0 °F 86.7 °F 57.0 °F 35% 29.66 in 10.0 mi WNW 10.4 mph 20.7 mph N/A   Mostly Cloudy
2:53 PM 84.0 °F 83.5 °F 57.9 °F 41% 29.66 in 10.0 mi West 10.4 mph 19.6 mph N/A   Mostly Cloudy
3:53 PM 87.1 °F 86.1 °F 57.9 °F 37% 29.66 in 10.0 mi West 11.5 mph - N/A   Mostly Cloudy
4:53 PM 87.1 °F 86.5 °F 59.0 °F 39% 29.64 in 10.0 mi West 6.9 mph - N/A   Scattered Clouds
5:53 PM 86.0 °F 85.4 °F 59.0 °F 40% 29.63 in 10.0 mi West 9.2 mph 17.3 mph N/A   Scattered Clouds
6:53 PM 82.9 °F 82.8 °F 59.0 °F 44% 29.64 in 10.0 mi WSW 8.1 mph - N/A   Partly Cloudy
7:53 PM 80.1 °F 80.9 °F 60.1 °F 50% 29.65 in 10.0 mi WSW 3.5 mph - N/A   Partly Cloudy
8:53 PM 78.1 °F - 61.0 °F 56% 29.65 in 10.0 mi SW 3.5 mph - N/A   Partly Cloudy
9:53 PM 75.9 °F - 61.0 °F 60% 29.67 in 10.0 mi SSW 4.6 mph - N/A   Partly Cloudy
10:51 PM 73.4 °F - 60.8 °F 65% 29.72 in 10.0 mi NW 13.8 mph 20.7 mph N/A   Mostly Cloudy
10:53 PM 73.9 °F - 61.0 °F 64% 29.70 in 10.0 mi WNW 12.7 mph - N/A   Mostly Cloudy
11:53 PM 69.1 °F - 62.1 °F 78% 29.70 in 10.0 mi WNW 6.9 mph - 0.00 in   Mostly Cloudy